F4EEX Weather Reports


time (UTC)temp
F
wind
direction
speed
knots
gust
knots
rain 1hr
in
rain 24hr
in
rain mn
in
humidity
%
barometer
mb
20260507212239 56 39 0.0 0.0 0.00 0.00 0.00 73 1012.3
20260507211739 56 39 0.0 0.0 0.00 0.00 0.00 73 1012.4
20260507211239 57 39 0.0 0.0 0.00 0.00 0.00 73 1012.3
20260507210739 56 39 0.0 0.0 0.00 0.00 0.00 73 1012.3
20260507210239 56 39 0.0 0.0 0.00 0.00 0.00 73 1012.2
20260507205739 57 39 0.0 0.0 0.00 0.00 0.00 73 1012.2
20260507205239 57 39 0.0 0.0 0.00 0.00 0.00 73 1012.1
20260507204739 57 39 0.0 0.0 0.00 0.00 0.00 72 1012.1
20260507204239 57 39 0.0 0.0 0.00 0.00 0.00 72 1012.0
20260507203740 57 39 0.0 0.0 0.00 0.00 0.00 72 1011.9
20260507203240 58 39 0.0 0.0 0.00 0.00 0.00 72 1011.8
20260507202740 58 39 0.0 0.0 0.00 0.00 0.00 71 1011.9
20260507202240 58 39 0.0 0.0 0.00 0.00 0.00 71 1011.8
20260507201740 59 39 0.0 0.0 0.00 0.00 0.00 70 1011.8
20260507201240 59 39 0.0 0.0 0.00 0.00 0.00 70 1011.8
20260507200740 59 39 0.0 0.0 0.00 0.00 0.00 70 1011.8
20260507200240 59 39 0.0 0.0 0.00 0.00 0.00 69 1011.7
20260507195740 59 39 0.0 0.0 0.00 0.00 0.00 69 1011.7
20260507195240 60 39 0.0 0.0 0.00 0.00 0.00 69 1011.6
20260507194740 60 39 0.0 0.0 0.00 0.00 0.00 68 1011.5
20260507194240 60 39 0.0 0.0 0.00 0.00 0.00 68 1011.4
20260507193740 60 39 0.0 2.6 0.00 0.00 0.00 67 1011.4
20260507193240 61 66 2.6 2.6 0.00 0.00 0.00 67 1011.4
20260507192740 61 19 0.9 3.5 0.00 0.00 0.00 66 1011.3
20260507192240 62 0 0.0 0.0 0.00 0.00 0.00 65 1011.2
20260507191740 62 0 0.0 0.0 0.00 0.00 0.00 64 1011.3
20260507191240 62 0 0.0 0.0 0.00 0.00 0.00 63 1011.3
20260507190740 62 0 0.0 1.7 0.00 0.00 0.00 63 1011.1
20260507190240 62 8 0.0 0.0 0.00 0.00 0.00 62 1010.9
20260507185740 63 333 0.0 0.0 0.00 0.00 0.00 62 1011.1
20260507185240 62 333 0.0 3.5 0.00 0.00 0.00 61 1011.1
20260507184740 63 330 0.0 1.7 0.00 0.00 0.00 61 1011.1
20260507184240 62 336 0.0 2.6 0.00 0.00 0.00 60 1011.1
20260507183740 63 333 1.7 3.5 0.00 0.00 0.00 59 1011.1
20260507183240 63 329 0.0 0.9 0.00 0.00 0.00 59 1011.1
20260507182740 63 333 0.9 1.7 0.00 0.00 0.00 60 1011.2
20260507182240 63 343 0.0 0.0 0.00 0.00 0.00 60 1011.1
20260507181740 63 343 0.0 3.5 0.00 0.00 0.00 60 1011.1
20260507181240 63 333 1.7 4.3 0.00 0.00 0.00 59 1011.1
20260507180740 63 2 3.5 6.1 0.00 0.00 0.00 58 1011.0
20260507180240 63 348 0.0 0.0 0.00 0.00 0.00 59 1011.0
20260507175740 63 348 0.0 0.0 0.00 0.00 0.00 59 1010.9
20260507175240 63 348 0.0 3.5 0.00 0.00 0.00 60 1010.8
20260507174740 63 341 2.6 4.3 0.00 0.00 0.00 60 1010.8
20260507174240 63 300 0.0 0.0 0.00 0.00 0.00 60 1010.9
20260507173740 63 300 0.0 0.0 0.00 0.00 0.00 60 1010.9
20260507173240 64 300 0.0 0.0 0.00 0.00 0.00 61 1010.9
20260507172740 64 300 0.0 0.0 0.00 0.00 0.00 60 1010.8
20260507172240 64 300 0.0 0.0 0.00 0.00 0.00 59 1010.8
20260507171740 64 300 0.0 0.0 0.00 0.00 0.00 57 1010.8
20260507171240 64 300 0.0 0.0 0.00 0.00 0.00 56 1010.9
20260507170740 64 300 0.0 0.0 0.00 0.00 0.00 59 1010.9
20260507170240 64 300 0.0 0.0 0.00 0.00 0.00 60 1010.9
20260507165740 64 300 0.0 0.0 0.00 0.00 0.00 59 1010.9
20260507165240 65 300 0.0 0.0 0.00 0.00 0.00 58 1010.9
20260507164740 64 300 0.0 0.0 0.00 0.00 0.00 57 1010.9
20260507164240 65 300 0.0 0.0 0.00 0.00 0.00 58 1011.0
20260507163740 65 300 0.0 0.0 0.00 0.00 0.00 57 1011.1
20260507163240 65 300 0.0 0.0 0.00 0.00 0.00 57 1011.0
20260507162740 65 300 0.0 0.0 0.00 0.00 0.00 56 1011.1
20260507162240 65 300 0.0 0.0 0.00 0.00 0.00 58 1011.1
20260507161740 65 300 0.0 0.0 0.00 0.00 0.00 57 1011.1
20260507161240 65 300 0.0 0.0 0.00 0.00 0.00 55 1011.1
20260507160740 65 300 0.0 0.0 0.00 0.00 0.00 53 1011.1
20260507160240 66 300 0.0 0.0 0.00 0.00 0.00 55 1011.1
20260507155740 65 300 0.0 0.0 0.00 0.00 0.00 54 1011.1
20260507155240 65 300 0.0 0.0 0.00 0.00 0.00 56 1011.1
20260507154740 64 300 0.0 0.0 0.00 0.00 0.00 55 1011.1
20260507154240 65 300 0.0 0.0 0.00 0.00 0.00 56 1011.1
20260507153740 65 300 0.0 0.0 0.00 0.00 0.00 55 1011.1
20260507153240 66 300 0.0 0.0 0.00 0.00 0.00 54 1011.1
20260507152740 65 300 0.0 0.0 0.00 0.00 0.00 53 1011.1
20260507152240 65 300 0.0 0.0 0.00 0.00 0.00 54 1011.2
20260507151740 66 300 0.0 0.0 0.00 0.00 0.00 51 1011.2
20260507151240 65 300 0.0 0.0 0.00 0.00 0.00 50 1011.1
20260507150740 65 300 0.0 0.0 0.00 0.00 0.00 55 1011.1
20260507150240 65 300 0.0 0.0 0.00 0.00 0.00 53 1011.2
20260507145741 66 300 0.0 0.0 0.00 0.00 0.00 54 1011.4
20260507145240 65 300 0.0 0.0 0.00 0.00 0.00 56 1011.4
20260507144740 65 300 0.0 0.0 0.00 0.00 0.00 56 1011.3
20260507144240 65 300 0.0 0.0 0.00 0.00 0.00 54 1011.3
20260507143740 66 300 0.0 10.4 0.00 0.00 0.00 55 1011.4
20260507143240 65 300 0.0 0.0 0.00 0.00 0.00 54 1011.4
20260507142740 66 300 0.0 0.0 0.00 0.00 0.00 52 1011.5
20260507142240 66 300 0.0 0.0 0.00 0.00 0.00 55 1011.4
20260507141740 66 300 0.0 0.0 0.00 0.00 0.00 53 1011.5
20260507141240 66 300 0.0 12.2 0.00 0.00 0.00 51 1011.6
20260507140740 66 300 0.0 0.0 0.00 0.00 0.00 51 1011.5
20260507140240 66 300 0.0 0.0 0.00 0.00 0.00 50 1011.6
20260507135740 65 300 0.0 0.0 0.00 0.00 0.00 49 1011.6
20260507135240 66 300 0.0 2.6 0.00 0.00 0.00 48 1011.6
20260507134740 66 300 0.0 0.0 0.00 0.00 0.00 49 1011.7
20260507134240 66 300 0.0 0.0 0.00 0.00 0.00 49 1011.7
20260507133740 66 300 0.0 0.0 0.00 0.00 0.00 47 1011.8
20260507133240 66 300 0.0 9.6 0.00 0.00 0.00 49 1011.9
20260507132740 66 275 0.0 13.9 0.00 0.00 0.00 50 1011.9
20260507132240 66 312 0.0 11.3 0.00 0.00 0.00 50 1011.9
20260507131740 66 300 0.0 0.0 0.00 0.00 0.00 50 1011.9
20260507131240 66 300 0.0 0.0 0.00 0.00 0.00 50 1011.9
20260507130740 66 300 0.0 0.0 0.00 0.00 0.00 50 1011.8
20260507130240 66 300 0.0 0.0 0.00 0.00 0.00 52 1011.8
20260507125740 66 300 0.0 0.0 0.00 0.00 0.00 53 1011.8
20260507125240 66 300 0.0 0.0 0.00 0.00 0.00 52 1011.8
20260507124741 67 300 0.0 0.0 0.00 0.00 0.00 51 1011.8
20260507124420 66 300 0.0 0.0 0.00 0.00 0.00 50 1011.8
20260507124240 66 300 0.0 0.0 0.00 0.00 0.00 50 1011.8
20260507123920 66 300 0.0 0.0 0.00 0.00 0.00 52 1012.0
20260507123740 66 300 0.0 0.0 0.00 0.00 0.00 52 1012.0
20260507123240 66 300 0.0 0.0 0.00 0.00 0.00 52 1011.9
20260507122740 66 300 0.0 0.0 0.00 0.00 0.00 52 1011.8
20260507122240 66 300 0.0 0.0 0.00 0.00 0.00 51 1011.9
20260507121740 67 300 0.0 0.0 0.00 0.00 0.00 50 1011.9
20260507121240 67 300 0.0 0.0 0.00 0.00 0.00 50 1011.9
20260507120741 67 300 0.0 0.0 0.00 0.00 0.00 50 1011.8
20260507120240 67 300 0.0 0.0 0.00 0.00 0.00 50 1011.8
20260507115740 67 300 0.0 0.0 0.00 0.00 0.00 48 1011.7
20260507115240 67 300 0.0 0.0 0.00 0.00 0.00 49 1011.7
20260507114740 67 300 0.0 0.0 0.00 0.00 0.00 50 1011.7
20260507114240 66 300 0.0 0.0 0.00 0.00 0.00 51 1011.7
20260507113741 66 300 0.0 0.0 0.00 0.00 0.00 50 1011.8
20260507113240 66 300 0.0 0.0 0.00 0.00 0.00 49 1011.7
20260507112744 67 300 0.0 0.0 0.00 0.00 0.00 47 1011.7
20260507112240 67 300 0.0 0.0 0.00 0.00 0.00 48 1011.6
20260507111740 67 300 0.0 0.0 0.00 0.00 0.00 46 1011.7
20260507111240 67 300 0.0 0.0 0.00 0.00 0.00 47 1011.7
20260507110740 66 300 0.0 0.0 0.00 0.00 0.00 46 1011.7
20260507110240 66 300 0.0 0.0 0.00 0.00 0.00 48 1011.7
20260507105740 66 300 0.0 0.0 0.00 0.00 0.00 50 1011.7
20260507105240 66 300 0.0 0.0 0.00 0.00 0.00 51 1011.8
20260507104740 66 300 0.0 0.0 0.00 0.00 0.00 49 1011.9
20260507104240 66 300 0.0 0.0 0.00 0.00 0.00 49 1012.0
20260507103740 66 300 0.0 0.0 0.00 0.00 0.00 52 1011.9
20260507103240 66 300 0.0 0.0 0.00 0.00 0.00 52 1012.1
20260507102740 65 300 0.0 0.0 0.00 0.00 0.00 52 1012.1
20260507102240 65 300 0.0 0.0 0.00 0.00 0.00 51 1012.0
20260507101740 65 300 0.0 0.0 0.00 0.00 0.00 55 1012.1
20260507101240 65 300 0.0 0.0 0.00 0.00 0.00 53 1012.2
20260507100740 65 300 0.0 0.0 0.00 0.00 0.00 54 1012.2
20260507100240 65 300 0.0 0.0 0.00 0.00 0.00 54 1012.2
20260507095741 65 300 0.0 0.0 0.00 0.00 0.00 54 1012.2
20260507095240 65 300 0.0 0.0 0.00 0.00 0.00 55 1012.2
20260507094740 65 300 0.0 0.0 0.00 0.00 0.00 56 1012.2
20260507094241 65 300 0.0 0.0 0.00 0.00 0.00 54 1012.2
20260507093741 65 300 0.0 0.0 0.00 0.00 0.00 54 1012.2
20260507093241 65 300 0.0 0.0 0.00 0.00 0.00 53 1012.3
20260507092741 64 300 0.0 0.0 0.00 0.00 0.00 54 1012.3
20260507092241 65 300 0.0 0.0 0.00 0.00 0.00 54 1012.2
20260507091741 65 300 0.0 0.0 0.00 0.00 0.00 53 1012.1
20260507091241 65 300 0.0 0.0 0.00 0.00 0.00 53 1012.2
20260507090741 65 300 0.0 0.0 0.00 0.00 0.00 53 1012.1
20260507090241 65 300 0.0 0.0 0.00 0.00 0.00 52 1012.0
20260507085741 65 300 0.0 7.0 0.00 0.00 0.00 54 1012.0
20260507085241 65 37 0.0 4.3 0.00 0.00 0.00 54 1012.0
20260507084741 64 320 0.0 0.0 0.00 0.00 0.00 55 1012.0
20260507084241 64 320 0.0 0.0 0.00 0.00 0.00 54 1012.0
20260507083741 64 320 0.0 0.0 0.00 0.00 0.00 52 1012.1
20260507083241 64 320 0.0 0.0 0.00 0.00 0.00 56 1012.0
20260507082741 64 320 0.0 5.2 0.00 0.00 0.00 56 1012.0
20260507082241 63 196 0.0 0.0 0.00 0.00 0.00 57 1011.9
20260507081741 63 196 0.0 0.0 0.00 0.00 0.00 55 1012.0
20260507081241 64 196 0.0 0.9 0.00 0.00 0.00 56 1011.9
20260507080741 63 320 0.0 4.3 0.00 0.00 0.00 59 1011.9
20260507080241 62 350 0.0 4.3 0.00 0.00 0.00 58 1011.9
20260507075741 63 315 2.6 5.2 0.00 0.00 0.00 60 1011.9
20260507075241 62 319 1.7 5.2 0.00 0.00 0.00 61 1011.9
20260507074741 62 333 0.0 4.3 0.00 0.00 0.00 63 1011.9
20260507074241 61 323 4.3 4.3 0.00 0.00 0.00 64 1011.8
20260507073741 62 1 0.0 3.5 0.00 0.00 0.00 66 1011.8
20260507073241 61 323 3.5 5.2 0.00 0.00 0.00 67 1011.8
20260507072741 61 347 0.0 0.0 0.00 0.00 0.00 68 1011.8
20260507072241 61 347 0.0 0.0 0.00 0.00 0.00 69 1011.8
20260507071741 60 347 0.0 0.0 0.00 0.00 0.00 71 1011.9
20260507071241 60 347 0.0 0.0 0.00 0.00 0.00 71 1011.9
20260507070741 59 347 0.0 0.0 0.00 0.00 0.00 73 1011.8
20260507070241 59 347 0.0 0.0 0.00 0.00 0.00 74 1011.7
20260507065741 59 347 0.0 0.0 0.00 0.00 0.00 76 1011.7
20260507065241 59 347 0.0 0.0 0.00 0.00 0.00 80 1011.6
20260507064741 59 347 0.0 0.0 0.00 0.00 0.00 80 1011.6
20260507064241 59 347 0.0 0.0 0.00 0.00 0.00 81 1011.6
20260507063741 59 347 0.0 0.0 0.00 0.00 0.00 83 1011.6
20260507063241 59 347 0.0 0.0 0.00 0.00 0.00 85 1011.5
20260507062741 58 347 0.0 0.0 0.00 0.00 0.00 86 1011.6
20260507062241 58 347 0.0 0.0 0.00 0.00 0.00 87 1011.5
20260507061741 58 347 0.0 0.0 0.00 0.00 0.00 87 1011.4
20260507061241 58 347 0.0 0.0 0.00 0.00 0.00 88 1011.5
20260507060741 56 347 0.0 0.0 0.00 0.00 0.00 89 1011.6
20260507060241 56 347 0.0 0.0 0.00 0.00 0.00 89 1011.6
20260507055741 55 347 0.0 0.0 0.00 0.00 0.00 90 1011.6
20260507055241 55 347 0.0 0.0 0.00 0.00 0.00 90 1011.6
20260507054741 55 347 0.0 0.0 0.00 0.00 0.00 90 1011.6
20260507054241 55 347 0.0 0.0 0.00 0.00 0.00 89 1011.5
20260507053741 55 347 0.0 0.0 0.00 0.00 0.00 90 1011.5
20260507053241 55 347 0.0 0.0 0.00 0.00 0.00 90 1011.5
20260507052741 54 347 0.0 0.0 0.00 0.00 0.00 91 1011.4
20260507052241 53 347 0.0 0.0 0.00 0.00 0.00 91 1011.3
20260507051741 53 347 0.0 0.0 0.00 0.00 0.00 91 1011.3
20260507051241 53 347 0.0 0.0 0.00 0.00 0.00 91 1011.3
20260507050741 52 347 0.0 0.0 0.00 0.00 0.00 91 1011.2
20260507050241 52 347 0.0 0.0 0.00 0.00 0.00 91 1011.2
20260507045741 52 347 0.0 0.0 0.00 0.00 0.00 91 1011.2
20260507045241 52 347 0.0 0.0 0.00 0.00 0.00 91 1011.1
20260507044741 52 347 0.0 0.0 0.00 0.00 0.00 91 1011.1
20260507044241 52 347 0.0 0.0 0.00 0.00 0.00 91 1011.1
20260507043741 52 347 0.0 0.0 0.00 0.00 0.00 91 1011.1
20260507043241 52 347 0.0 0.0 0.00 0.00 0.00 91 1011.0
20260507042741 52 347 0.0 0.0 0.00 0.00 0.00 91 1011.0
20260507042241 52 347 0.0 0.0 0.00 0.00 0.00 90 1011.1
20260507041741 53 347 0.0 0.0 0.00 0.00 0.00 90 1011.0
20260507041241 52 347 0.0 0.0 0.00 0.00 0.00 90 1011.0
20260507040741 52 347 0.0 0.0 0.00 0.00 0.00 90 1011.0
20260507040241 52 347 0.0 0.0 0.00 0.00 0.00 90 1011.0
20260507035741 53 347 0.0 0.0 0.00 0.00 0.00 90 1011.0
20260507035241 53 347 0.0 0.0 0.00 0.00 0.00 90 1011.0
20260507034741 53 347 0.0 0.0 0.00 0.00 0.00 90 1010.9
20260507034241 53 347 0.0 0.0 0.00 0.00 0.00 90 1010.9
20260507033741 53 347 0.0 0.0 0.00 0.00 0.00 90 1010.9
20260507033241 53 347 0.0 0.0 0.00 0.00 0.00 90 1010.9
20260507032741 53 347 0.0 0.0 0.00 0.00 0.00 90 1010.9
20260507032241 53 347 0.0 0.0 0.00 0.00 0.00 90 1010.9
20260507031741 53 347 0.0 0.0 0.00 0.00 0.00 90 1010.9
20260507031241 53 347 0.0 0.0 0.00 0.00 0.00 90 1010.8
20260507030741 54 347 0.0 0.0 0.00 0.00 0.00 89 1010.9
20260507030241 54 347 0.0 0.0 0.00 0.00 0.00 89 1010.9
20260507025741 54 347 0.0 0.0 0.00 0.00 0.00 89 1011.0
20260507025241 54 347 0.0 0.0 0.00 0.00 0.00 89 1011.0
20260507024741 54 347 0.0 0.0 0.00 0.00 0.00 89 1011.0
20260507024241 54 347 0.0 0.0 0.00 0.00 0.00 89 1011.0
20260507023741 54 347 0.0 0.0 0.00 0.00 0.00 89 1011.1
20260507023241 54 347 0.0 0.0 0.00 0.00 0.00 89 1011.1
20260507022741 54 347 0.0 0.0 0.00 0.00 0.00 88 1011.1
20260507022241 54 347 0.0 0.0 0.00 0.00 0.00 88 1011.0
20260507021741 54 347 0.0 0.0 0.00 0.00 0.00 88 1011.0
20260507021241 54 347 0.0 0.0 0.00 0.00 0.00 88 1011.0
20260507020741 55 347 0.0 0.0 0.00 0.00 0.00 88 1011.0
20260507020241 55 347 0.0 0.0 0.00 0.00 0.00 88 1011.1
20260507015741 55 347 0.0 0.0 0.00 0.00 0.00 88 1011.1
20260507015241 55 347 0.0 0.0 0.00 0.00 0.00 88 1011.1
20260507014741 55 347 0.0 0.0 0.00 0.00 0.00 87 1011.1
20260507014241 55 347 0.0 0.0 0.00 0.00 0.00 87 1011.0
20260507013741 55 347 0.0 0.0 0.00 0.00 0.00 87 1011.1
20260507013241 55 347 0.0 0.0 0.00 0.00 0.00 87 1011.1
20260507012741 56 347 0.0 0.0 0.00 0.00 0.00 87 1011.0
20260507012241 56 347 0.0 0.0 0.00 0.00 0.00 87 1011.1
20260507011741 55 347 0.0 0.0 0.00 0.00 0.00 87 1011.1
20260507011241 56 347 0.0 0.0 0.00 0.00 0.00 86 1011.1
20260507010741 56 347 0.0 0.0 0.00 0.00 0.00 86 1011.1
20260507010241 56 347 0.0 0.0 0.00 0.00 0.00 86 1011.1
20260507005741 56 347 0.0 0.0 0.00 0.00 0.00 86 1011.2
20260507005241 56 347 0.0 0.0 0.00 0.01 0.00 86 1011.3
20260507004741 56 347 0.0 0.0 0.00 0.01 0.00 86 1011.3
20260507004241 56 347 0.0 0.0 0.00 0.01 0.00 86 1011.3
20260507003741 56 347 0.0 0.0 0.00 0.01 0.00 85 1011.2
20260507003241 56 347 0.0 0.0 0.00 0.01 0.00 85 1011.2
20260507002741 57 347 0.0 0.0 0.00 0.01 0.00 85 1011.3
20260507002241 57 347 0.0 0.0 0.00 0.01 0.00 85 1011.3
20260507001741 57 347 0.0 0.0 0.00 0.01 0.00 85 1011.4
20260507001241 57 347 0.0 0.0 0.00 0.01 0.00 84 1011.3
20260507000741 57 347 0.0 0.0 0.00 0.01 0.00 84 1011.4
20260507000241 57 347 0.0 0.0 0.00 0.01 0.00 84 1011.4
20260506235741 57 347 0.0 0.0 0.00 0.01 0.00 84 1011.4
20260506235241 58 347 0.0 0.0 0.00 0.25 0.00 83 1011.4
20260506234741 58 347 0.0 0.0 0.00 0.25 0.00 83 1011.5
20260506234241 58 347 0.0 0.0 0.00 0.25 0.00 83 1011.5
20260506233741 58 347 0.0 0.0 0.00 0.25 0.00 82 1011.6
20260506233241 58 347 0.0 0.0 0.00 0.25 0.00 82 1011.6
20260506232741 58 347 0.0 0.0 0.00 0.25 0.00 82 1011.7
20260506232241 59 347 0.0 0.0 0.00 0.25 0.00 81 1011.7
20260506231741 59 347 0.0 0.0 0.00 0.25 0.00 81 1011.7
20260506231241 59 347 0.0 0.0 0.00 0.25 0.00 81 1011.7
20260506230741 59 347 0.0 0.0 0.00 0.25 0.00 81 1011.8
20260506230241 59 347 0.0 0.0 0.00 0.25 0.00 81 1011.8
20260506225742 59 347 0.0 0.9 0.00 0.25 0.00 81 1011.8
20260506225242 59 347 0.9 5.2 0.00 0.48 0.00 81 1011.8
20260506224742 59 343 3.5 8.7 0.00 0.48 0.00 81 1011.8
20260506224242 59 331 7.8 8.7 0.00 0.48 0.00 81 1011.8
20260506223741 59 345 0.0 9.6 0.00 0.48 0.00 80 1011.8
20260506223242 59 322 9.6 9.6 0.00 0.48 0.00 80 1011.9
20260506222742 59 327 5.2 7.8 0.00 0.48 0.00 80 1011.9
20260506222242 60 8 4.3 7.8 0.00 0.48 0.00 80 1011.9
20260506221742 60 323 5.2 13.0 0.00 0.48 0.00 80 1011.9
20260506221242 59 300 2.6 15.6 0.00 0.48 0.00 79 1011.9
20260506220742 60 326 8.7 9.6 0.00 0.48 0.00 79 1011.9
20260506220242 59 340 0.0 7.8 0.00 0.48 0.00 78 1011.9
20260506215742 60 330 4.3 7.0 0.00 0.48 0.58 78 1011.8
20260506215242 60 348 0.9 7.8 0.00 0.58 0.58 78 1011.9
20260506214742 59 324 6.1 11.3 0.00 0.58 0.58 79 1011.8
20260506214242 59 300 2.6 11.3 0.00 0.58 0.58 79 1011.9
20260506213742 59 344 1.7 4.3 0.00 0.58 0.58 77 1011.8
20260506213242 58 2 3.5 6.1 0.00 0.58 0.58 78 1011.8
20260506212742 58 8 0.0 3.5 0.00 0.58 0.58 76 1011.8